[[{"header":{"parameterUnit":"m.s-1","parameterCategory":1,"la1":30.2991,"la2":30.254,"lo1":-89.0895,"lo2":-89.0444,"dy":0.0017,"dx":0.0017,"nx":28,"ny":28,"refTime":"2023-10-19T03:00:00:Z","depth":0,"parameterNumber":2,"parameterNumberName":"U-component_of_WINDS"},"data":[0,0,0,0,0,0,0,0,0,0,0,0,0,0,0,0,0,0,0,0,0,0,0,0,0,0,0,0,0,0,0,0,0,0,0,0,0,0,0,0,0,0,0,0,0,0,0,0,0,0,0,0,0,0,0,0,0,0,0.0567,0.0567,0,0.059,0.059,0.059,0.0587,0.0586,0.0586,0.0586,0.0606,0.0607,0.0608,0,0,0,0,0,0,0,0,0,0,0,0,0,0.0518,0.0519,0.0567,0.0567,0.0567,0.0589,0.059,0.059,0.0587,0.0586,0.0586,0.0585,0.0606,0.0607,0.0608,0,0,0,0,0,0,0,0,0,0,0,0,0,0.054,0.0519,0.0567,0.0568,0.0569,0.0589,0.059,0.059,0.0587,0.0586,0.0586,0.0585,0.0606,0.0607,0.0608,0.0628,0,0,0.0613,0.0613,0,0,0,0,0,0,0,0,0.0538,0.0541,0.0568,0.0568,0.0569,0.0585,0.058,0.0603,0.0587,0.058,0.0586,0.0585,0.0599,0.0601,0.0607,0.0629,0.063,0.0613,0.0613,0.0614,0.0614,0,0,0,0,0,0,0,0.0537,0.054,0.0576,0.0568,0.0569,0.0567,0.057,0.0584,0.0592,0.058,0.058,0.0583,0.06,0.0605,0.0607,0.063,0.0613,0.0614,0.0615,0.0615,0.0669,0.067,0,0,0,0,0,0,0.0535,0.0539,0.0575,0.0576,0.0552,0.0568,0.0571,0.058,0.0592,0.0594,0.0584,0.0583,0.0603,0.0606,0.0608,0.0631,0.0614,0.0615,0.0616,0.0668,0.0669,0.067,0,0,0,0,0,0,0.0534,0.0538,0.0574,0.0558,0.0562,0.057,0.058,0.0581,0.0587,0.0595,0.0596,0.0588,0.0603,0.0606,0.0623,0.0632,0.0616,0.0617,0.0668,0.0669,0.067,0.0679,0,0,0,0,0,0,0.0533,0.0538,0.0546,0.0558,0.0563,0.059,0.0581,0.0582,0.0589,0.0589,0.0599,0.0601,0.0603,0.0621,0.0624,0.0634,0.0618,0.0667,0.0668,0.0669,0.0678,0.068,0.0682,0,0,0,0,0,0.0531,0.0547,0.0547,0.0551,0.0574,0.059,0.0593,0.0596,0.059,0.0598,0.0603,0.06,0.0631,0.0623,0.0627,0.0636,0.0666,0.0668,0.0669,0.0677,0.068,0.0682,0,0,0,0,0,0,0.0536,0.0549,0.0548,0.0569,0.0579,0.059,0.06,0.0599,0.0609,0.0608,0.0611,0.0613,0.063,0.0635,0.0626,0.0656,0.0648,0.065,0.0652,0.0655,0.0657,0.0655,0.0619,0,0,0,0,0,0.0539,0.0553,0.0563,0.058,0.0585,0.0592,0.0599,0.0601,0.061,0.0614,0.062,0.0629,0.064,0.0648,0.0659,0.0678,0.068,0.0687,0.0689,0.0691,0.0692,0.0703,0.0706,0.0674,0.0674,0.0674,0,0,0.0546,0.0555,0.0563,0.0582,0.0589,0.0602,0.0595,0.0609,0.0618,0.0616,0.0633,0.0637,0.0647,0.0666,0.0674,0.067,0.0702,0.0692,0.0694,0.0695,0.0705,0.0708,0.071,0.0675,0.0675,0.0675,0,0,0.0566,0.0575,0.059,0.0598,0.061,0.0614,0.0618,0.0629,0.0632,0.0649,0.0647,0.0658,0.0678,0.0685,0.0691,0.0714,0.0711,0.0717,0.0728,0.0738,0.074,0.0743,0.075,0.0753,0.0719,0.0719,0.0719,0,0.0573,0.0594,0.0598,0.0612,0.062,0.0619,0.0634,0.0641,0.0656,0.066,0.0656,0.0681,0.0687,0.0707,0.0713,0.0718,0.0722,0.0716,0.074,0.0742,0.0744,0.0752,0.0755,0.0719,0.0719,0.0719,0.0719,0,0.0602,0.0616,0.0627,0.0642,0.0651,0.0665,0.0671,0.0679,0.068,0.0684,0.0701,0.0709,0.0721,0.0726,0.0727,0.0746,0.0743,0.0739,0.0731,0.0748,0.0755,0.0758,0.072,0.072,0.072,0.072,0,0,0.0625,0.0643,0.0646,0.0653,0.0666,0.0677,0.0691,0.0704,0.0711,0.0721,0.0732,0.0749,0.0746,0.0753,0.0754,0.0763,0.078,0.0758,0.0758,0.0761,0.0801,0.0804,0.0808,0.0778,0.0779,0.0779,0.0801,0,0.0646,0.0672,0.0676,0.0699,0.0712,0.0711,0.0723,0.0732,0.0737,0.0747,0.0752,0.0764,0.0758,0.0762,0.0771,0.0776,0.0788,0.0774,0.0789,0.0789,0.0786,0.0811,0.0814,0.0834,0.0803,0.0804,0.0804,0,0.0674,0.0686,0.071,0.0722,0.0727,0.0738,0.075,0.0761,0.0771,0.0773,0.0781,0.0781,0.0795,0.0787,0.0805,0.0796,0.0802,0.0805,0.0806,0.0807,0.0797,0.0813,0.084,0.0843,0.0809,0.0808,0.0808,0,0.0688,0.071,0.0727,0.0733,0.0747,0.0755,0.0761,0.077,0.0778,0.0788,0.0793,0.0804,0.0811,0.0819,0.0822,0.0816,0.0841,0.0832,0.0842,0.0842,0.0848,0.0847,0.0876,0.0852,0.0852,0.0852,0.0852,0,0.0711,0.0726,0.0734,0.0745,0.0761,0.0765,0.0781,0.0786,0.0795,0.0806,0.0805,0.0816,0.0819,0.0829,0.0832,0.0847,0.0849,0.0851,0.0852,0.0851,0.0851,0.0855,0.0854,0.0852,0.0852,0.0852,0.0852,0,0.0729,0.0735,0.0754,0.0766,0.077,0.0781,0.0791,0.0801,0.0805,0.0819,0.0822,0.0829,0.0841,0.0845,0.086,0.0861,0.0879,0.0878,0.0876,0.0876,0.0886,0.0885,0.0918,0.0922,0.0896,0.0896,0.0896,0,0.0743,0.0755,0.0768,0.0776,0.0783,0.0795,0.0803,0.0808,0.0816,0.0828,0.0836,0.0849,0.0859,0.0879,0.0884,0.0895,0.0895,0.0905,0.0896,0.0895,0.0894,0.0894,0.0895,0.0907,0.0907,0.0908,0.0908,0,0.0767,0.077,0.0782,0.0796,0.0805,0.0816,0.0826,0.0832,0.0837,0.0847,0.086,0.0868,0.0883,0.0895,0.0907,0.0912,0.091,0.0911,0.0914,0.0913,0.0911,0.0912,0.088,0.091,0.091,0.0909,0.0909,0.0909,0.0784,0.0794,0.0805,0.0819,0.0827,0.0836,0.0846,0.0852,0.0864,0.0878,0.0879,0.0893,0.0902,0.0918,0.0923,0.0934,0.093,0.0935,0.0936,0.0937,0.0937,0.091,0.0936,0.0936,0.0936,0.0936,0.0936,0,0.0807,0.0815,0.0827,0.0842,0.0852,0.0851,0.0862,0.0871,0.0884,0.0893,0.0903,0.0918,0.093,0.0937,0.0949,0.0956,0.0955,0.0959,0.0958,0.0959,0.094,0.0936,0.0959,0.0959,0.0959,0.0959,0.0959,0.0959,0.0821,0.0838,0.0842,0.0864,0.0871,0.0885,0.0892,0.09,0.0908,0.0925,0.0935,0.094,0.0948,0.096,0.0971,0.0972,0.0976,0.098,0.0981,0.0963,0.096,0.0958,0.0955,0.0981,0.0981,0.0999,0.0999,0.1]},{"header":{"parameterUnit":"m.s-1","parameterCategory":1,"la1":30.2991,"la2":30.254,"lo1":-89.0895,"lo2":-89.0444,"dy":0.0017,"dx":0.0017,"nx":28,"ny":28,"refTime":"2023-10-19T03:00:00:Z","depth":0,"parameterNumber":3,"parameterNumberName":"V-component_of_WINDS"},"data":[0,0,0,0,0,0,0,0,0,0,0,0,0,0,0,0,0,0,0,0,0,0,0,0,0,0,0,0,0,0,0,0,0,0,0,0,0,0,0,0,0,0,0,0,0,0,0,0,0,0,0,0,0,0,0,0,0,0,3.3576,3.3575,0,3.3503,3.3502,3.3501,3.3439,3.3439,3.3438,3.3437,3.3357,3.3356,3.3355,0,0,0,0,0,0,0,0,0,0,0,0,0,3.3657,3.3656,3.3576,3.3575,3.3574,3.3503,3.3502,3.3501,3.3439,3.3439,3.3438,3.3437,3.3358,3.3356,3.3354,0,0,0,0,0,0,0,0,0,0,0,0,0,3.3606,3.3655,3.3576,3.3535,3.353,3.3503,3.3502,3.35,3.344,3.3439,3.3438,3.3437,3.3359,3.3356,3.3354,3.336,0,0,3.3347,3.3346,0,0,0,0,0,0,0,0,3.3609,3.3603,3.3542,3.3538,3.3533,3.3479,3.3501,3.3453,3.344,3.3474,3.3437,3.3436,3.3398,3.3393,3.3381,3.3356,3.3353,3.3347,3.3346,3.3345,3.3344,0,0,0,0,0,0,0,3.3613,3.3606,3.3547,3.3541,3.3535,3.3518,3.351,3.3492,3.3442,3.3471,3.3466,3.3459,3.3396,3.3384,3.3379,3.3352,3.3347,3.3345,3.3344,3.3343,3.3327,3.3328,0,0,0,0,0,0,3.3623,3.361,3.3549,3.3544,3.3569,3.3518,3.3508,3.3497,3.3442,3.3433,3.346,3.3456,3.3388,3.3382,3.3376,3.3379,3.3345,3.3343,3.3341,3.3326,3.3327,3.3328,0,0,0,0,0,0,3.3625,3.3619,3.3552,3.3576,3.3566,3.3517,3.3505,3.3496,3.3484,3.3434,3.3424,3.3457,3.3387,3.3379,3.3365,3.3375,3.3342,3.334,3.3325,3.3326,3.3328,3.3385,0,0,0,0,0,0,3.3628,3.362,3.3623,3.3576,3.3565,3.3544,3.3506,3.3496,3.3481,3.3476,3.3429,3.342,3.3385,3.3368,3.3362,3.3371,3.3338,3.3324,3.3325,3.3327,3.3382,3.3388,3.3393,0,0,0,0,0,3.3631,3.3641,3.3623,3.3616,3.3568,3.3544,3.3538,3.3499,3.3482,3.3484,3.3452,3.3421,3.3375,3.3367,3.336,3.3369,3.3323,3.3325,3.3327,3.3379,3.3387,3.3393,0,0,0,0,0,0,3.3688,3.3634,3.3614,3.3609,3.3582,3.3534,3.3535,3.3509,3.3485,3.3481,3.3432,3.3422,3.3413,3.3389,3.3382,3.3371,3.3345,3.3346,3.3387,3.3394,3.3399,3.3405,3.3336,0,0,0,0,0,3.37,3.3687,3.364,3.364,3.3628,3.3584,3.3572,3.3545,3.3515,3.3502,3.3469,3.3439,3.3417,3.3404,3.3382,3.3378,3.3366,3.338,3.3386,3.3391,3.3392,3.3387,3.3393,3.3335,3.3335,3.3335,0,0,3.3725,3.3694,3.3688,3.3651,3.3627,3.3613,3.3575,3.3562,3.355,3.35,3.3485,3.3459,3.3422,3.3413,3.3407,3.3393,3.3405,3.3394,3.3398,3.3396,3.339,3.3395,3.34,3.3336,3.3336,3.3336,0,0,3.3763,3.3738,3.3736,3.3713,3.3677,3.3648,3.3647,3.3603,3.3585,3.357,3.3531,3.3516,3.348,3.3455,3.3438,3.3467,3.3437,3.346,3.349,3.3486,3.3491,3.3495,3.3504,3.3508,3.3462,3.3462,3.3462,0,3.3797,3.3777,3.3737,3.3727,3.3711,3.3666,3.3662,3.3641,3.3599,3.3589,3.3574,3.3528,3.35,3.3484,3.3491,3.3479,3.3475,3.3465,3.3494,3.3497,3.35,3.3508,3.3512,3.3465,3.3464,3.3464,3.3464,0,3.3821,3.3807,3.3809,3.3771,3.3756,3.3749,3.3707,3.3695,3.3669,3.3641,3.3625,3.359,3.356,3.3554,3.3528,3.3534,3.3526,3.3503,3.3476,3.3509,3.3516,3.3519,3.3469,3.3468,3.3467,3.3466,0,0,3.3892,3.3834,3.3835,3.3817,3.3775,3.3762,3.3752,3.3724,3.3715,3.3687,3.3677,3.3648,3.3626,3.3607,3.3577,3.3574,3.3598,3.3551,3.3549,3.3561,3.3602,3.3619,3.3624,3.3579,3.3579,3.358,3.3604,0,3.3923,3.3905,3.3869,3.3861,3.3847,3.3804,3.3795,3.3767,3.3741,3.3723,3.3693,3.3673,3.3647,3.3634,3.3629,3.3597,3.3606,3.3594,3.3567,3.3566,3.3577,3.3627,3.3646,3.3671,3.3607,3.3607,3.3608,0,3.3956,3.3933,3.3925,3.3883,3.3876,3.3869,3.3839,3.3824,3.3791,3.3771,3.375,3.3718,3.3704,3.3679,3.3658,3.3651,3.3637,3.362,3.362,3.3615,3.3589,3.3624,3.3678,3.3682,3.3612,3.3612,3.3611,0,3.4009,3.3975,3.3966,3.3952,3.3903,3.3899,3.3878,3.3844,3.3829,3.3803,3.3793,3.3765,3.3749,3.3727,3.3688,3.3674,3.3671,3.3643,3.3653,3.3654,3.3654,3.3654,3.3707,3.3646,3.3646,3.3646,3.3646,0,3.4047,3.4043,3.3989,3.3983,3.3977,3.3935,3.393,3.3905,3.3875,3.3862,3.3822,3.3811,3.376,3.3742,3.3711,3.3697,3.3691,3.3673,3.3665,3.3677,3.3679,3.3667,3.3664,3.3647,3.3647,3.3647,3.3646,0,3.4105,3.4068,3.4055,3.401,3.3999,3.3996,3.3957,3.3948,3.392,3.3904,3.3897,3.3851,3.3828,3.3787,3.3751,3.3731,3.3723,3.3709,3.3735,3.373,3.3741,3.3741,3.3787,3.3791,3.373,3.373,3.3731,0,3.4131,3.4127,3.4082,3.4072,3.4053,3.4036,3.4021,3.3979,3.3965,3.3927,3.3923,3.3897,3.3874,3.3838,3.38,3.3772,3.3757,3.3775,3.3752,3.3764,3.3756,3.3757,3.3756,3.378,3.3781,3.3782,3.3783,0,3.4182,3.4164,3.4145,3.4119,3.4103,3.408,3.4055,3.4048,3.4,3.3986,3.3963,3.3945,3.3909,3.3883,3.385,3.3826,3.3796,3.379,3.3791,3.3803,3.3818,3.3809,3.3748,3.3789,3.3789,3.3788,3.3788,3.3788,3.4224,3.4219,3.4186,3.4166,3.4143,3.4121,3.4111,3.4081,3.4062,3.4031,3.4006,3.3985,3.395,3.3903,3.3881,3.3862,3.3848,3.3849,3.3849,3.385,3.3854,3.3821,3.3855,3.3855,3.3855,3.3855,3.3855,0,3.4272,3.4249,3.4231,3.4198,3.4182,3.4157,3.4128,3.4115,3.4097,3.4069,3.4047,3.402,3.3994,3.3955,3.3926,3.3918,3.3903,3.3912,3.3911,3.3906,3.3869,3.3871,3.3924,3.3924,3.3924,3.3924,3.3924,3.3924,3.4295,3.4285,3.4263,3.424,3.4217,3.4197,3.4182,3.4161,3.4138,3.4109,3.4089,3.4064,3.403,3.3998,3.3973,3.3962,3.3953,3.3965,3.395,3.3915,3.3909,3.3903,3.3905,3.3964,3.3964,3.3989,3.3989,3.3989]}]]